| time (UTC) | temp C | wind direction | speed KPH | gust KPH | rain 1hr cm | rain 24hr cm | rain mn cm | humidity % | barometer mb |
| 20260508050021 | 13 | 238 | 0.0 | 0.0 | 0.00 | 0.00 | 0.00 | 67 | 1016.6 |
| 20260508044516 | 13 | 238 | 0.0 | 4.8 | 0.00 | 0.00 | 0.00 | 65 | 1016.6 |
| 20260508043016 | 14 | 212 | 0.0 | 4.8 | 0.00 | 0.00 | 0.00 | 63 | 1016.6 |
| 20260508041519 | 15 | 274 | 1.6 | 6.4 | 0.00 | 0.00 | 0.00 | 62 | 1016.5 |
| 20260508040014 | 15 | 270 | 0.0 | 4.8 | 0.00 | 0.00 | 0.00 | 61 | 1016.3 |
| 20260508034522 | 16 | 265 | 0.0 | 4.8 | 0.00 | 0.00 | 0.00 | 61 | 1016.1 |
| 20260508033023 | 16 | 260 | 1.6 | 4.8 | 0.00 | 0.00 | 0.00 | 61 | 1015.8 |
| 20260508031516 | 17 | 88 | 0.0 | 4.8 | 0.00 | 0.00 | 0.00 | 59 | 1015.6 |
| 20260508030017 | 18 | 89 | 0.0 | 3.2 | 0.00 | 0.00 | 0.00 | 53 | 1015.5 |
| 20260508024520 | 18 | 89 | 0.0 | 3.2 | 0.00 | 0.00 | 0.00 | 50 | 1015.5 |
| 20260508023014 | 18 | 89 | 0.0 | 0.0 | 0.00 | 0.00 | 0.00 | 46 | 1015.6 |
| 20260508021511 | 19 | 89 | 0.0 | 1.6 | 0.00 | 0.00 | 0.00 | 48 | 1015.5 |
| 20260508020011 | 20 | 89 | 1.6 | 4.8 | 0.00 | 0.00 | 0.00 | 45 | 1015.5 |
| 20260508014513 | 20 | 90 | 0.0 | 4.8 | 0.00 | 0.00 | 0.00 | 44 | 1015.5 |
| 20260508013008 | 21 | 91 | 0.0 | 4.8 | 0.00 | 0.00 | 0.00 | 43 | 1015.7 |
| 20260508011506 | 21 | 91 | 0.0 | 3.2 | 0.00 | 0.00 | 0.00 | 42 | 1015.9 |
| 20260508010008 | 21 | 91 | 0.0 | 3.2 | 0.00 | 0.00 | 0.00 | 42 | 1015.9 |
| 20260508004505 | 21 | 92 | 0.0 | 9.7 | 0.00 | 0.00 | 0.00 | 44 | 1015.9 |
| 20260508003004 | 21 | 85 | 1.6 | 8.0 | 0.00 | 0.00 | 0.00 | 42 | 1016.1 |
| 20260508001502 | 21 | 76 | 1.6 | 9.7 | 0.00 | 0.00 | 0.00 | 42 | 1016.2 |
| 20260508000002 | 21 | 117 | 0.0 | 4.8 | 0.00 | 0.00 | 0.00 | 40 | 1016.2 |
| 20260507234559 | 21 | 121 | 0.0 | 4.8 | 0.00 | 0.00 | 0.00 | 41 | 1016.3 |
| 20260507233057 | 21 | 355 | 0.0 | 8.0 | 0.00 | 0.00 | 0.00 | 45 | 1016.5 |
| 20260507231556 | 21 | 300 | 1.6 | 6.4 | 0.00 | 0.00 | 0.00 | 47 | 1016.7 |
| 20260507230107 | 20 | 41 | 0.0 | 6.4 | 0.00 | 0.00 | 0.00 | 46 | 1016.9 |
| 20260507224549 | 20 | 196 | 1.6 | 11.3 | 0.00 | 0.00 | 0.00 | 46 | 1017.1 |
| 20260507223133 | 20 | 330 | 1.6 | 8.0 | 0.00 | 0.00 | 0.00 | 47 | 1017.3 |
| 20260507221545 | 20 | 188 | 0.0 | 11.3 | 0.00 | 0.00 | 0.00 | 49 | 1017.3 |
| 20260507220042 | 20 | 295 | 3.2 | 8.0 | 0.00 | 0.00 | 0.00 | 51 | 1017.6 |
| 20260507214551 | 20 | 76 | 0.0 | 9.7 | 0.00 | 0.00 | 0.00 | 50 | 1017.7 |
| 20260507213038 | 20 | 281 | 0.0 | 6.4 | 0.00 | 0.00 | 0.00 | 51 | 1017.9 |
| 20260507211536 | 19 | 294 | 1.6 | 6.4 | 0.00 | 0.00 | 0.00 | 54 | 1018.1 |
| 20260507210040 | 18 | 45 | 3.2 | 11.3 | 0.00 | 0.00 | 0.00 | 56 | 1018.3 |
| 20260507204533 | 18 | 130 | 1.6 | 11.3 | 0.00 | 0.00 | 0.00 | 53 | 1018.5 |
| 20260507203034 | 17 | 269 | 4.8 | 14.5 | 0.00 | 0.00 | 0.00 | 55 | 1018.7 |
| 20260507201523 | 17 | 233 | 0.0 | 6.4 | 0.00 | 0.00 | 0.00 | 55 | 1019.0 |
| 20260507200044 | 17 | 350 | 3.2 | 8.0 | 0.00 | 0.00 | 0.00 | 58 | 1019.0 |
| 20260507194518 | 16 | 94 | 3.2 | 9.7 | 0.00 | 0.00 | 0.00 | 59 | 1019.1 |
| 20260507193036 | 16 | 190 | 0.0 | 8.0 | 0.00 | 0.00 | 0.00 | 61 | 1019.3 |
| 20260507191512 | 16 | 57 | 1.6 | 8.0 | 0.00 | 0.00 | 0.00 | 60 | 1019.5 |
| 20260507190010 | 15 | 82 | 1.6 | 6.4 | 0.00 | 0.00 | 0.00 | 61 | 1019.6 |
| 20260507184511 | 15 | 300 | 1.6 | 9.7 | 0.00 | 0.00 | 0.00 | 62 | 1019.8 |
| 20260507183009 | 15 | 20 | 1.6 | 8.0 | 0.00 | 0.00 | 0.00 | 63 | 1019.8 |
| 20260507181506 | 15 | 82 | 1.6 | 8.0 | 0.00 | 0.00 | 0.00 | 63 | 1019.8 |
| 20260507180006 | 15 | 16 | 4.8 | 9.7 | 0.00 | 0.00 | 0.00 | 64 | 1020.0 |
| 20260507174504 | 15 | 80 | 1.6 | 8.0 | 0.00 | 0.00 | 0.00 | 64 | 1020.1 |
| 20260507173003 | 14 | 51 | 1.6 | 6.4 | 0.00 | 0.00 | 0.00 | 63 | 1020.1 |
| 20260507171604 | 13 | 82 | 0.0 | 8.0 | 0.00 | 0.00 | 0.00 | 64 | 1020.1 |
| 20260507170056 | 13 | 82 | 0.0 | 4.8 | 0.00 | 0.00 | 0.00 | 65 | 1020.1 |
| 20260507164556 | 13 | 38 | 1.6 | 4.8 | 0.00 | 0.00 | 0.00 | 65 | 1020.1 |
| 20260507163053 | 13 | 38 | 0.0 | 6.4 | 0.00 | 0.00 | 0.00 | 65 | 1020.1 |
| 20260507161601 | 12 | 65 | 1.6 | 6.4 | 0.00 | 0.00 | 0.00 | 64 | 1020.2 |
| 20260507160048 | 12 | 55 | 1.6 | 9.7 | 0.00 | 0.00 | 0.00 | 64 | 1020.3 |
| 20260507154545 | 12 | 32 | 0.0 | 6.4 | 0.00 | 0.00 | 0.00 | 64 | 1020.4 |
| 20260507153057 | 11 | 32 | 1.6 | 6.4 | 0.00 | 0.00 | 0.00 | 64 | 1020.4 |
| 20260507151541 | 11 | 49 | 0.0 | 4.8 | 0.00 | 0.00 | 0.00 | 63 | 1020.4 |
| 20260507150046 | 11 | 64 | 0.0 | 4.8 | 0.00 | 0.00 | 0.00 | 63 | 1020.4 |
| 20260507144539 | 11 | 304 | 0.0 | 4.8 | 0.00 | 0.00 | 0.00 | 62 | 1020.4 |
| 20260507143035 | 11 | 303 | 0.0 | 4.8 | 0.00 | 0.00 | 0.00 | 62 | 1020.3 |
| 20260507141534 | 11 | 243 | 0.0 | 3.2 | 0.00 | 0.00 | 0.00 | 59 | 1020.2 |
| 20260507140034 | 10 | 249 | 0.0 | 0.0 | 0.00 | 0.00 | 0.00 | 59 | 1020.0 |
| 20260507134532 | 10 | 249 | 0.0 | 3.2 | 0.00 | 0.00 | 0.00 | 58 | 1020.0 |
| 20260507133032 | 10 | 249 | 0.0 | 1.6 | 0.00 | 0.00 | 0.00 | 58 | 1020.0 |
| 20260507131533 | 10 | 249 | 0.0 | 3.2 | 0.00 | 0.00 | 0.00 | 58 | 1020.0 |
| 20260507130052 | 10 | 275 | 0.0 | 1.6 | 0.00 | 0.00 | 0.00 | 54 | 1020.2 |
| 20260507124529 | 10 | 275 | 0.0 | 1.6 | 0.00 | 0.00 | 0.00 | 49 | 1020.1 |
| 20260507123029 | 10 | 275 | 0.0 | 0.0 | 0.00 | 0.00 | 0.00 | 47 | 1020.1 |
| 20260507121527 | 10 | 275 | 0.0 | 0.0 | 0.00 | 0.00 | 0.00 | 48 | 1020.2 |
| 20260507120034 | 11 | 275 | 0.0 | 0.0 | 0.00 | 0.00 | 0.00 | 49 | 1020.4 |
| 20260507114524 | 10 | 275 | 0.0 | 3.2 | 0.00 | 0.00 | 0.00 | 50 | 1020.4 |
| 20260507113023 | 10 | 275 | 0.0 | 0.0 | 0.00 | 0.00 | 0.00 | 50 | 1020.5 |
| 20260507111521 | 11 | 275 | 0.0 | 0.0 | 0.00 | 0.00 | 0.00 | 52 | 1020.6 |
| 20260507110024 | 11 | 275 | 0.0 | 1.6 | 0.00 | 0.00 | 0.00 | 54 | 1020.6 |
| 20260507104519 | 11 | 275 | 0.0 | 3.2 | 0.00 | 0.00 | 0.00 | 55 | 1020.6 |
| 20260507103020 | 11 | 275 | 0.0 | 1.6 | 0.00 | 0.00 | 0.00 | 54 | 1020.7 |
| 20260507101518 | 11 | 275 | 0.0 | 3.2 | 0.00 | 0.00 | 0.00 | 55 | 1020.8 |
| 20260507100021 | 11 | 274 | 0.0 | 1.6 | 0.00 | 0.00 | 0.00 | 55 | 1020.9 |
| 20260507094512 | 11 | 274 | 0.0 | 3.2 | 0.00 | 0.00 | 0.00 | 55 | 1020.9 |
| 20260507093011 | 11 | 274 | 0.0 | 4.8 | 0.00 | 0.00 | 0.00 | 56 | 1021.1 |
| 20260507091509 | 11 | 273 | 0.0 | 0.0 | 0.00 | 0.00 | 0.00 | 55 | 1021.2 |
| 20260507090008 | 11 | 273 | 0.0 | 3.2 | 0.00 | 0.00 | 0.00 | 57 | 1021.3 |
| 20260507084507 | 11 | 273 | 0.0 | 3.2 | 0.00 | 0.00 | 0.00 | 56 | 1021.4 |
| 20260507083007 | 11 | 273 | 0.0 | 3.2 | 0.00 | 0.00 | 0.00 | 57 | 1021.2 |
| 20260507081505 | 10 | 273 | 0.0 | 3.2 | 0.00 | 0.00 | 0.00 | 57 | 1021.3 |
| 20260507080004 | 10 | 290 | 0.0 | 4.8 | 0.00 | 0.00 | 0.00 | 58 | 1021.3 |
| 20260507074505 | 10 | 283 | 0.0 | 4.8 | 0.00 | 0.00 | 0.00 | 58 | 1021.3 |
| 20260507073002 | 10 | 280 | 1.6 | 6.4 | 0.00 | 0.00 | 0.00 | 58 | 1021.4 |
| 20260507071600 | 10 | 271 | 0.0 | 4.8 | 0.00 | 0.00 | 0.00 | 58 | 1021.3 |
| 20260507071501 | 10 | 271 | 0.0 | 4.8 | 0.00 | 0.00 | 0.00 | 58 | 1021.3 |
| 20260507064554 | 10 | 271 | 0.0 | 4.8 | 0.00 | 0.00 | 0.00 | 59 | 1021.2 |
| 20260507063051 | 10 | 273 | 0.0 | 9.7 | 0.00 | 0.00 | 0.00 | 59 | 1021.2 |
| 20260507061545 | 10 | 278 | 0.0 | 6.4 | 0.00 | 0.00 | 0.00 | 58 | 1021.2 |
| 20260507060040 | 10 | 5 | 0.0 | 4.8 | 0.00 | 0.00 | 0.00 | 58 | 1021.3 |
| 20260507054541 | 10 | 312 | 0.0 | 9.7 | 0.00 | 0.00 | 0.00 | 60 | 1021.1 |
| 20260507053032 | 10 | 162 | 0.0 | 4.8 | 0.00 | 0.00 | 0.00 | 58 | 1021.2 |
| 20260507051527 | 10 | 83 | 0.0 | 3.2 | 0.00 | 0.00 | 0.00 | 59 | 1021.3 |